Location: Burzi?i
(45.0869°N, 16.0577°E)
Time: 11:52:39
(UTC+00:00)

Cosmos 1980 Rocket - Pass Details

Date: 29 October 2020
Orbit: 831 x 848 km, 71.0° (Epoch: 27 November)

Event Time Altitude Azimuth Distance (km) Brightness Sun altitude
Rises 19:14:07 0° 237° (WSW) 3,380 5.8 -36.7°
Reaches altitude 10° 19:16:52 10° 248° (WSW) 2,446 5.1 -37.1°
Enters shadow 19:21:25 29° 303° (WNW) 1,488 3.9 -37.9°
